Шизе

Russia / Krasnodar Krai     44˚44′26″N   38˚09′37″E
temp.,
°C
wind,
m/s
gust,
m/s
humid.,
%
clouds,
%
prec.,
mm/h
press.,
hPa
HPBL,
m
28 november, sat
sat2800:00+5˚s12923 0.0 102644
03:00+5˚s12928 0.0 102538
06:00+5˚sse22914 0.0 102431
09:00+6˚sse12882 0.0 102424
12:00+11˚ene12650 0.0 1023315
15:00+12˚ne12600 0.0 1022367
18:00+7˚sse11720 0.0 102122
21:00+6˚s22740 0.0 102229
29 november, sun
sun2900:00+6˚s23780 0.0 102265
03:00+6˚s23870 0.0 102270
06:00+6˚s23890 0.0 102252
09:00+7˚s23890 0.0 102371
12:00+13˚s246117 0.0 1023521
15:00+13˚se02589 0.0 1023463
18:00+8˚e11730 0.0 102225
21:00+6˚e11699 0.0 102322
30 november, mon
mon3000:00+5˚e115925 0.0 102222
03:00+5˚e115719 0.0 102222
06:00+3˚ne116355 0.0 102022
09:00+4˚ne116561 0.0 102126
12:00+8˚ne225718 0.0 1019220
15:00+8˚ne245833 0.0 1018323
18:00+4˚ene127630 0.0 101826
21:00+3˚ene128954 0.0 101823
1 december, tue
tue100:00+2˚ene119235 0.0 101822
03:00+1˚nne009026 0.0 101722
06:00+2˚wsw017739 0.0 101722
09:00+4˚se017242 0.0 101822
12:00+9˚ene136355 0.0 1018377
15:00+9˚ene236367 0.0 1017418
18:00+6˚e117657 0.0 101822
21:00+6˚ese127774 0.0 101922
2 december, wed
wed200:00+5˚ese128216 0.0 102022
03:00+5˚e118526 0.0 102022
06:00+4˚e118623 0.0 102122
09:00+5˚ene118311 0.0 102122
12:00+9˚ne12650 0.0 1022249
15:00+9˚ne22639 0.0 1021234
18:00+6˚ene117537 0.0 102127
21:00+5˚e128023 0.0 102237